Vertical_Velocity
6 2 -1 -3 1 6 -1 -4 -0 33 6 -0 1 2 1 2 1 0 -2 -1 -1 0 2 1 3 0 0 -2 -0 1 1 0 -0 -1 -2 -1 -2 -1 1 -1 -1 -0 1 -0 -1
-4 1 -7 -2 -1 -0 -3 -12 8 4 36 5 -1 2 1 1 1 0 -7 -2 -0 0 0 1 1 2 -1 0 1 -0 1 0 0 -2 -1 0 1 -0 -0 1 -0 -0 1 1 2
1 -2 1 -1 1 -2 8 -11 -18 5 37 18 1 3 2 2 3 2 -2 -2 0 -1 1 3 -1 3 1 1 0 0 -1 0 -1 -1 -1 1 1 -1 -1 -1 -1 0 -2 -1 -1
0 0 -0 -4 -3 3 -8 3 -11 4 2 34 8 2 2 2 -3 2 1 6 2 -1 -1 1 1 -1 2 -3 -2 0 -2 -0 -0 -0 -0 1 -1 0 0 -0 -1 -3 -3 -3 -2
-1 -3 -1 -4 -1 1 -1 -6 -0 -5 7 34 11 3 4 1 0 1 2 -0 1 -0 1 1 4 0 1 -4 -1 -0 -0 1 1 -2 -2 0 -1 -2 4 -3 -3 -1 -2 -3 -3
-1 -1 -2 -2 -2 -2 1 -4 -3 -5 4 17 -2 -0 -1 6 3 1 2 1 3 -0 -0 -0 1 -1 3 -1 1 -1 2 1 -0 -1 -3 -1 -2 -1 2 -2 -2 -3 -1 -2 -3
-0 0 -1 -1 -1 -2 2 2 5 -1 3 -6 10 -9 -3 1 3 1 4 0 2 1 1 1 3 4 -0 4 2 -1 0 -1 -1 -1 -2 -2 -4 -1 -1 1 1 -2 -1 1 -0
-2 -1 0 -0 -1 -3 5 9 3 11 10 6 -2 -1 -2 1 1 2 2 3 0 1 -2 -0 1 3 1 -3 -1 1 1 -1 -1 0 -1 1 -6 1 -2 -1 -0 0 0 -0 6
-5 -5 0 6 19 7 5 3 4 0 6 -1 9 -0 -6 -5 -1 0 -0 1 -0 -0 -0 1 1 1 -0 0 0 -0 -1 2 1 -2 -2 1 -2 -1 -3 -2 -1 1 3 -4 -7
-1 -1 -1 2 -1 0 -3 4 -9 -6 -2 6 -4 3 1 -0 -2 1 -2 1 -0 -2 -1 -2 0 1 2 -0 -4 -2 -1 -1 -1 -2 -0 0 -8 -2 4 -8 -5 -1 -8 -3 -1
0 -1 -3 -3 -4 -3 1 0 4 8 19 -7 -4 -0 0 1 2 -2 -2 2 0 -0 -2 0 0 1 1 0 -1 -1 -1 -0 -1 -1 -3 -1 -10 -3 -0 -5 -8 -6 -1 -1 -1
-0 -3 -2 -4 1 -1 3 0 1 4 -9 1 4 1 2 -0 -0 3 3 5 2 -2 -1 -2 -1 -1 1 -0 -1 1 -0 -1 0 -1 -3 -2 -8 -7 -3 -1 -4 -4 -2 -0 0
-8 -2 -0 -5 -4 -3 3 3 -0 4 -13 2 1 1 1 4 -3 -2 2 0 4 1 2 -2 -2 -0 -0 -0 0 -1 0 0 -0 -0 -2 -7 -8 -6 -5 -4 -0 0 -1 -3 -3
-4 -4 -8 -6 -3 -9 1 1 -3 -1 -6 -2 -1 2 2 0 -1 1 3 0 -5 1 -1 -2 -1 -2 -3 -3 -3 -1 -1 -2 -2 -2 -2 1 -10 -4 -3 -0 -2 -3 -2 -2 -3
-9 1 -4 -1 -1 5 -2 -2 -3 -5 -10 -1 0 -0 -2 -1 -4 -0 -1 0 2 -1 -1 -3 -1 -0 0 -1 -2 -2 -2 -1 -1 -2 -1 -3 1 -6 -3 -2 -1 -1 -2 -1 -0
-3 -4 -4 1 -7 0 -4 -1 1 -1 -5 1 -1 -0 -0 2 -1 0 0 2 1 1 1 -0 -1 -0 -1 -0 -0 -1 -1 -1 -1 -2 -1 0 2 -9 0 1 0 -1 -2 -4 -4
3 2 4 0 2 2 -2 -1 -2 -12 0 -1 -2 0 3 0 -1 -3 -1 -1 -2 -3 -2 -1 -1 -0 0 -1 -2 -1 1 -3 -7 -4 -7 0 2 -14 -2 -3 -5 -3 -4 -3 -2
-2 -1 -4 -0 2 -2 -3 -3 -11 -2 -3 -2 -1 2 -0 -0 0 -0 -3 -3 -2 -1 -3 -1 -1 -1 -1 -1 -1 -2 -1 -2 -5 -2 -4 -0 -5 -2 -2 -0 -2 -4 -6 -3 -0
-3 -1 -1 -2 -1 1 -4 -5 -0 -1 -3 -2 -3 0 -2 -1 -1 -2 -2 -1 -2 -1 -1 -3 -2 -1 -1 -1 -1 -1 -0 0 -1 0 1 -1 -3 -1 -1 2 -4 -4 -1 -2 -1
-3 -1 1 1 -0 -5 4 -14 -4 1 -0 3 1 0 -1 -1 -2 -2 -1 -1 -1 -1 1 0 -0 2 2 1 1 -1 -0 -2 -3 -2 -1 -3 -3 -11 -1 -1 -0 1 -0 -4 -1
0 -3 1 -3 -1 -3 -13 -5 -3 -3 -1 -2 -0 -0 -1 -2 -2 -0 0 2 1 1 0 0 0 -1 -2 -2 0 -3 -4 -2 1 -2 -3 -1 -10 -3 -5 -3 1 -1 -3 2 2
2 -6 -4 -3 -0 1 -9 -12 -5 -3 -1 -1 0 -1 -2 -1 -2 -1 -2 -2 -1 1 1 -0 0 -3 -0 0 0 1 2 1 -1 0 -0 1 -28 -4 -2 1 -1 2 2 2 -1
-1 -1 -2 -5 -7 -0 0 -3 -5 -4 -3 -3 -3 -2 -1 -3 -2 -2 -1 -1 -1 -3 -4 -3 -0 1 0 -0 -1 -5 -2 2 4 1 -7 -1 -18 0 2 1 3 -1 0 0 3
-2 0 -0 -2 -5 -3 -4 1 2 -3 -4 -5 -5 -3 -0 1 0 -0 -0 1 -0 2 1 0 -1 -1 -5 0 1 -3 -2 -1 5 3 -5 -23 -22 14 6 -0 5 1 3 -2 1
1 -2 -1 1 2 -5 -3 -3 -0 3 -0 -3 -0 -2 -5 -3 -3 -3 -1 -1 0 -1 -2 -2 -5 -1 0 -0 3 -1 2 2 -5 -2 -5 -3 -12 3 2 -2 -1 1 2 -3 0
-0 2 -3 -1 -2 2 1 -3 -1 1 1 2 -1 -4 0 -3 -3 -5 -2 -3 -0 -1 0 0 -4 -2 -13 4 2 -4 -0 0 -0 1 -12 4 -27 2 2 4 -2 -1 1 -3 -5
-6 -2 4 -1 0 -3 -3 2 -0 -1 0 1 -1 3 0 -1 3 -0 1 2 -1 0 1 1 -1 0 -7 -1 -2 -8 -2 1 2 -0 7 -9 2 4 3 3 -5 -1 -3 -3 -1
Height
3015 3016 3018 3020 3020 3021 3024 3025 3032 3035 3042 3049 3053 3058 3063 3068 3074 3080 3085 3091 3095 3098 3103 3106 3110 3115 3120 3124 3128 3131 3134 3135 3137 3140 3143 3146 3148 3150 3151 3153 3154 3156 3158 3160 3161
3020 3019 3020 3022 3022 3022 3023 3026 3031 3035 3041 3048 3052 3057 3062 3068 3073 3078 3083 3087 3093 3097 3101 3104 3109 3114 3119 3122 3127 3129 3132 3134 3137 3140 3143 3145 3147 3150 3151 3152 3153 3155 3157 3159 3160
3022 3022 3021 3022 3024 3024 3024 3026 3029 3036 3039 3046 3051 3056 3062 3067 3073 3076 3082 3086 3091 3096 3099 3104 3109 3114 3118 3121 3125 3128 3131 3134 3137 3140 3143 3144 3146 3148 3150 3151 3152 3154 3155 3156 3157
3023 3021 3021 3022 3023 3025 3025 3026 3031 3033 3038 3045 3049 3055 3061 3066 3074 3076 3081 3087 3091 3095 3099 3103 3109 3113 3116 3120 3125 3128 3131 3134 3136 3139 3142 3143 3145 3147 3150 3150 3150 3151 3153 3154 3154
3025 3023 3022 3022 3023 3025 3025 3026 3030 3035 3040 3042 3046 3054 3060 3067 3071 3075 3080 3086 3091 3095 3099 3104 3109 3113 3115 3120 3125 3127 3130 3132 3134 3137 3140 3141 3143 3146 3148 3149 3149 3149 3150 3150 3152
3027 3026 3024 3023 3023 3025 3027 3029 3031 3033 3036 3040 3046 3053 3061 3068 3071 3075 3081 3087 3091 3095 3100 3104 3108 3112 3116 3119 3124 3126 3128 3131 3134 3136 3138 3140 3141 3144 3146 3146 3147 3147 3147 3146 3148
3029 3027 3025 3024 3023 3026 3029 3030 3032 3032 3037 3042 3049 3055 3061 3069 3072 3076 3082 3087 3091 3095 3100 3105 3108 3112 3114 3118 3122 3125 3128 3130 3133 3134 3136 3137 3140 3142 3142 3142 3142 3143 3143 3143 3142
3031 3028 3027 3025 3025 3028 3031 3032 3034 3037 3042 3044 3050 3056 3062 3069 3073 3078 3083 3088 3092 3096 3101 3105 3108 3111 3114 3118 3121 3124 3127 3129 3131 3132 3134 3136 3137 3138 3138 3138 3138 3138 3139 3138 3135
3033 3031 3029 3027 3029 3032 3035 3036 3038 3041 3045 3049 3054 3058 3064 3071 3076 3080 3083 3089 3093 3097 3101 3106 3109 3112 3115 3117 3121 3123 3125 3126 3128 3129 3131 3133 3134 3135 3135 3133 3133 3133 3131 3128 3130
3038 3036 3035 3034 3033 3036 3038 3040 3039 3044 3050 3055 3059 3066 3071 3074 3079 3082 3086 3090 3095 3098 3103 3106 3110 3112 3114 3116 3119 3120 3123 3125 3126 3128 3128 3128 3129 3131 3131 3127 3127 3126 3125 3124 3124
3041 3039 3039 3039 3040 3041 3042 3042 3046 3055 3056 3060 3065 3067 3073 3077 3082 3086 3089 3093 3097 3101 3104 3108 3111 3112 3115 3117 3119 3121 3123 3125 3125 3125 3125 3124 3124 3127 3125 3121 3122 3122 3120 3118 3117
3047 3042 3040 3043 3044 3046 3045 3047 3052 3057 3060 3065 3071 3075 3078 3082 3085 3089 3093 3096 3098 3102 3105 3109 3111 3113 3115 3117 3119 3121 3121 3123 3123 3122 3121 3120 3119 3120 3118 3116 3116 3116 3114 3111 3110
3054 3050 3047 3050 3052 3051 3051 3054 3059 3063 3064 3074 3077 3080 3083 3087 3088 3092 3096 3097 3101 3104 3106 3109 3113 3114 3116 3117 3118 3119 3120 3121 3121 3120 3119 3117 3113 3113 3112 3112 3111 3109 3108 3107 3105
3063 3062 3061 3061 3063 3061 3063 3064 3067 3069 3074 3084 3085 3087 3088 3089 3093 3095 3098 3102 3102 3105 3108 3110 3112 3114 3115 3117 3119 3119 3119 3119 3118 3118 3118 3117 3113 3110 3108 3106 3105 3104 3104 3102 3100
3075 3072 3071 3071 3070 3070 3071 3071 3071 3072 3080 3091 3089 3090 3091 3094 3096 3098 3099 3102 3103 3105 3109 3111 3111 3114 3115 3116 3117 3118 3118 3118 3116 3116 3115 3113 3112 3101 3101 3101 3102 3101 3099 3097 3094
3079 3077 3076 3075 3075 3074 3073 3072 3074 3077 3087 3091 3092 3093 3094 3096 3097 3098 3100 3103 3105 3107 3108 3110 3112 3114 3114 3115 3116 3117 3117 3116 3114 3114 3113 3109 3109 3098 3097 3098 3098 3097 3094 3091 3089
3085 3082 3080 3078 3077 3074 3074 3075 3076 3079 3091 3095 3095 3096 3096 3097 3098 3100 3102 3104 3105 3108 3109 3111 3112 3113 3114 3114 3115 3116 3116 3115 3117 3116 3112 3108 3107 3094 3095 3096 3095 3092 3089 3086 3083
3086 3084 3082 3079 3076 3075 3075 3077 3078 3088 3090 3094 3096 3098 3098 3099 3101 3102 3103 3105 3106 3107 3108 3110 3113 3112 3113 3114 3114 3114 3115 3115 3122 3120 3110 3106 3097 3091 3092 3092 3090 3087 3084 3082 3080
3090 3087 3086 3084 3081 3078 3078 3078 3086 3090 3093 3095 3098 3100 3100 3101 3102 3103 3104 3106 3106 3107 3110 3109 3111 3112 3112 3113 3114 3113 3114 3115 3115 3114 3112 3100 3092 3090 3089 3089 3087 3084 3082 3081 3077
3096 3093 3090 3088 3086 3085 3085 3083 3090 3092 3095 3098 3099 3100 3101 3102 3104 3104 3105 3106 3107 3108 3108 3109 3110 3111 3111 3111 3112 3111 3114 3115 3115 3118 3115 3095 3090 3087 3087 3087 3086 3084 3081 3079 3073
3099 3097 3095 3092 3092 3092 3089 3091 3094 3096 3098 3099 3099 3100 3101 3102 3103 3105 3106 3107 3106 3107 3107 3108 3109 3111 3110 3109 3109 3111 3111 3112 3113 3111 3110 3106 3088 3086 3086 3086 3084 3081 3078 3074 3070
3102 3100 3099 3097 3096 3094 3095 3096 3097 3099 3099 3100 3101 3102 3103 3104 3104 3105 3106 3107 3107 3108 3108 3107 3108 3108 3109 3108 3109 3108 3109 3109 3109 3109 3108 3107 3089 3085 3084 3083 3080 3077 3074 3072 3069
3102 3102 3101 3099 3099 3098 3097 3097 3099 3100 3101 3102 3102 3103 3104 3104 3105 3105 3106 3107 3107 3108 3107 3108 3108 3107 3107 3109 3106 3104 3105 3106 3107 3107 3104 3105 3085 3082 3081 3079 3077 3073 3072 3070 3069
3104 3103 3102 3101 3100 3100 3100 3100 3100 3101 3102 3102 3103 3102 3103 3104 3104 3105 3105 3106 3106 3107 3107 3107 3105 3105 3104 3103 3103 3101 3100 3101 3103 3102 3097 3087 3079 3078 3078 3075 3073 3071 3070 3068 3066
3104 3104 3103 3102 3101 3101 3101 3101 3101 3101 3102 3102 3102 3103 3104 3103 3104 3104 3104 3105 3105 3106 3105 3105 3103 3102 3100 3098 3098 3095 3094 3096 3093 3092 3091 3076 3075 3072 3073 3071 3070 3069 3067 3066 3064
3103 3104 3103 3102 3102 3102 3102 3101 3101 3101 3101 3101 3102 3102 3102 3103 3103 3102 3103 3103 3103 3103 3103 3102 3100 3098 3092 3091 3088 3084 3082 3082 3082 3081 3079 3075 3069 3070 3069 3068 3067 3065 3064 3063 3061
3103 3102 3102 3101 3101 3101 3101 3101 3101 3101 3101 3100 3100 3101 3102 3102 3101 3101 3101 3101 3100 3101 3100 3100 3099 3097 3088 3087 3083 3076 3069 3070 3071 3071 3072 3070 3067 3067 3066 3065 3064 3062 3061 3060 3059